TimeEDT,TemperatureF,Dew PointF,Humidity,Sea Level PressureIn,VisibilityMPH,Wind Direction,Wind SpeedMPH,Gust SpeedMPH,PrecipitationIn,Events,Conditions,WindDirDegrees,DateUTC
12:15 AM,52.9,52.7,99,30.14,10.0,Calm,Calm,-,N/A,,Clear,0,2012-10-25 04:15:00
12:35 AM,52.2,51.8,99,30.14,7.0,Calm,Calm,-,N/A,,Clear,0,2012-10-25 04:35:00
12:55 AM,51.4,51.3,99,30.14,7.0,Calm,Calm,-,N/A,,Clear,0,2012-10-25 04:55:00
1:35 AM,50.2,50.2,100,30.15,4.0,Calm,Calm,-,N/A,,Clear,0,2012-10-25 05:35:00
1:55 AM,49.8,49.8,100,30.15,4.0,Calm,Calm,-,N/A,,Clear,0,2012-10-25 05:55:00
2:15 AM,49.6,49.6,100,30.15,4.0,Calm,Calm,-,N/A,,Clear,0,2012-10-25 06:15:00
2:35 AM,49.3,49.3,100,30.15,7.0,Calm,Calm,-,N/A,,Clear,0,2012-10-25 06:35:00
2:55 AM,48.2,48.2,100,30.14,4.0,Calm,Calm,-,N/A,,Clear,0,2012-10-25 06:55:00
3:35 AM,47.7,47.7,100,30.14,2.5,Calm,Calm,-,N/A,,Clear,0,2012-10-25 07:35:00
3:55 AM,47.5,47.5,100,30.13,4.0,Calm,Calm,-,N/A,,Clear,0,2012-10-25 07:55:00
4:15 AM,47.1,47.1,100,30.13,2.5,Calm,Calm,-,N/A,,Clear,0,2012-10-25 08:15:00
4:35 AM,46.6,46.6,100,30.13,0.8,Calm,Calm,-,N/A,,Mist,0,2012-10-25 08:35:00
4:55 AM,46.4,46.4,100,30.13,1.2,Calm,Calm,-,N/A,,Mist,0,2012-10-25 08:55:00
5:15 AM,46.2,46.2,100,30.13,0.8,Calm,Calm,-,N/A,,Mist,0,2012-10-25 09:15:00
5:35 AM,45.7,45.7,100,30.13,4.0,Calm,Calm,-,N/A,,Clear,0,2012-10-25 09:35:00
5:55 AM,45.0,45.0,100,30.14,3.0,Calm,Calm,-,N/A,,Clear,0,2012-10-25 09:55:00
6:15 AM,44.2,44.2,100,30.14,4.0,Calm,Calm,-,N/A,,Clear,0,2012-10-25 10:15:00
6:35 AM,44.4,44.4,100,30.14,2.0,Calm,Calm,-,N/A,,Clear,0,2012-10-25 10:35:00
6:55 AM,44.2,44.2,100,30.14,1.0,Calm,Calm,-,N/A,,Mist,0,2012-10-25 10:55:00
7:55 AM,44.4,44.4,100,30.15,2.0,Calm,Calm,-,N/A,,Clear,0,2012-10-25 11:55:00
8:15 AM,44.4,44.4,100,30.15,2.5,Calm,Calm,-,N/A,,Clear,0,2012-10-25 12:15:00
8:35 AM,45.9,45.9,100,30.16,4.0,Calm,Calm,-,N/A,,Clear,0,2012-10-25 12:35:00
8:55 AM,48.4,48.4,100,30.17,7.0,Calm,Calm,-,N/A,,Clear,0,2012-10-25 12:55:00
9:35 AM,53.4,53.2,99,30.18,10.0,Calm,Calm,-,N/A,,Clear,0,2012-10-25 13:35:00
9:55 AM,55.8,53.8,93,30.18,10.0,Calm,Calm,-,N/A,,Clear,0,2012-10-25 13:55:00
10:15 AM,58.3,54.0,86,30.19,10.0,Calm,Calm,-,N/A,,Clear,0,2012-10-25 14:15:00
10:55 AM,63.7,55.2,74,30.19,10.0,Calm,Calm,-,N/A,,Clear,0,2012-10-25 14:55:00
11:15 AM,66.4,55.4,68,30.18,10.0,Calm,Calm,-,N/A,,Clear,0,2012-10-25 15:15:00
11:35 AM,68.7,54.5,60,30.18,10.0,Calm,Calm,-,N/A,,Clear,0,2012-10-25 15:35:00
11:55 AM,70.9,54.5,56,30.18,10.0,Calm,Calm,-,N/A,,Clear,0,2012-10-25 15:55:00
12:15 PM,72.7,54.1,52,30.17,10.0,Calm,Calm,-,N/A,,Clear,0,2012-10-25 16:15:00
12:35 PM,74.3,54.5,50,30.16,10.0,Calm,Calm,-,N/A,,Clear,0,2012-10-25 16:35:00
12:55 PM,75.0,54.3,48,30.16,10.0,Calm,Calm,-,N/A,,Clear,0,2012-10-25 16:55:00
1:15 PM,75.7,54.9,48,30.15,10.0,South,3.5,-,N/A,,Clear,180,2012-10-25 17:15:00
1:35 PM,77.0,55.0,47,30.14,10.0,Calm,Calm,-,N/A,,Clear,0,2012-10-25 17:35:00
1:55 PM,77.9,54.1,44,30.14,10.0,Calm,Calm,-,N/A,,Clear,0,2012-10-25 17:55:00
2:15 PM,78.4,54.0,43,30.13,10.0,SE,3.5,-,N/A,,Clear,140,2012-10-25 18:15:00
2:35 PM,78.6,53.8,42,30.12,10.0,Calm,Calm,-,N/A,,Clear,0,2012-10-25 18:35:00
2:55 PM,78.8,53.4,41,30.12,10.0,Calm,Calm,-,N/A,,Clear,0,2012-10-25 18:55:00
3:15 PM,79.2,54.0,42,30.12,10.0,Calm,Calm,-,N/A,,Clear,0,2012-10-25 19:15:00
3:35 PM,79.3,54.0,41,30.11,10.0,South,4.6,-,N/A,,Clear,180,2012-10-25 19:35:00
4:15 PM,79.2,54.1,42,30.11,10.0,South,5.8,-,N/A,,Clear,170,2012-10-25 20:15:00
4:35 PM,79.0,55.0,44,30.11,10.0,SSE,4.6,-,N/A,,Clear,160,2012-10-25 20:35:00
4:55 PM,78.8,54.5,43,30.11,10.0,SSE,5.8,-,N/A,,Clear,160,2012-10-25 20:55:00
5:15 PM,78.3,54.3,43,30.11,10.0,South,5.8,-,N/A,,Clear,190,2012-10-25 21:15:00
5:35 PM,77.5,54.7,45,30.11,10.0,South,4.6,-,N/A,,Clear,180,2012-10-25 21:35:00
5:55 PM,75.9,56.1,50,30.11,10.0,Calm,Calm,-,N/A,,Clear,0,2012-10-25 21:55:00
6:15 PM,72.9,57.6,59,30.11,10.0,Calm,Calm,-,N/A,,Clear,0,2012-10-25 22:15:00
6:35 PM,66.6,59.0,77,30.12,10.0,Calm,Calm,-,N/A,,Clear,0,2012-10-25 22:35:00
6:55 PM,63.5,58.6,84,30.13,10.0,Calm,Calm,-,N/A,,Clear,0,2012-10-25 22:55:00
7:15 PM,61.5,57.6,87,30.13,10.0,Calm,Calm,-,N/A,,Clear,0,2012-10-25 23:15:00
7:35 PM,60.1,57.0,90,30.14,10.0,Calm,Calm,-,N/A,,Clear,0,2012-10-25 23:35:00
7:55 PM,59.0,56.8,93,30.14,10.0,Calm,Calm,-,N/A,,Clear,0,2012-10-25 23:55:00
8:15 PM,58.3,56.3,93,30.14,10.0,Calm,Calm,-,N/A,,Clear,0,2012-10-26 00:15:00
8:35 PM,57.4,55.9,95,30.14,10.0,Calm,Calm,-,N/A,,Clear,0,2012-10-26 00:35:00
8:55 PM,56.7,55.4,96,30.14,10.0,Calm,Calm,-,N/A,,Clear,0,2012-10-26 00:55:00
9:15 PM,55.9,55.0,97,30.14,10.0,Calm,Calm,-,N/A,,Clear,0,2012-10-26 01:15:00
9:35 PM,55.6,54.9,97,30.14,10.0,Calm,Calm,-,N/A,,Clear,0,2012-10-26 01:35:00
9:55 PM,55.0,54.3,97,30.14,10.0,Calm,Calm,-,N/A,,Clear,0,2012-10-26 01:55:00
10:15 PM,54.9,54.1,97,30.13,7.0,Calm,Calm,-,N/A,,Clear,0,2012-10-26 02:15:00
10:35 PM,54.5,54.0,98,30.13,7.0,Calm,Calm,-,N/A,,Clear,0,2012-10-26 02:35:00
10:55 PM,54.0,53.4,98,30.13,5.0,Calm,Calm,-,N/A,,Clear,0,2012-10-26 02:55:00
11:35 PM,52.9,52.3,98,30.11,4.0,Calm,Calm,-,N/A,,Clear,0,2012-10-26 03:35:00
11:55 PM,53.1,52.9,99,30.11,5.0,Calm,Calm,-,N/A,,Clear,0,2012-10-26 03:55:00